Location: Austin
(30.3000°N, 97.7500°W)
Time: 06:06:29
(UTC-06:00)

PKM - Pass Details

Date: 03 March 2026
Orbit: 395 x 13730 km, 55.4° (Epoch: 2 March)

Event Time Altitude Azimuth Distance (km) Brightness Sun altitude
Rises 20:04:34 0° 319° (NW) 7,074 10.1 -20.9°
Reaches altitude 10° 20:10:57 10° 322° (NW) 4,436 9.0 -22.3°
Maximum altitude 20:19:44 71° 46° (NE) 806 4.4 -24.1°
Enters shadow 20:19:59 69° 73° (ENE) 790 4.3 -24.2°
